Location: Conjunto Santa Maria
(19.9513°S, 43.9599°W)
Time: 13:39:18
(UTC+00:00)

H-2A R/B - Pass Details

Date: 21 January 2021
Orbit: 573 x 598 km, 98.2° (Epoch: 03 March)

Event Time Altitude Azimuth Distance (km) Brightness Sun altitude
Exits shadow 23:37:42 40° 162° (SSE) 856 4.3 -25.1°
Drops below altitude 10° 23:40:32 10° 183° (S) 1,899 6.5 -25.7°
Sets 23:42:43 0° 186° (S) 2,803 7.5 -26.1°
